Regional Weather Roundup
Issued by NWS

Home | Current Version | Previous Version | Text Only | Print | Product List | Glossary On
Versions: 1 2 3 4 5 6 7 8 9 10 11 12 13 14 15 16 17 18 19 20 21 22 23 24 25 26 27 28 29 30 31 32 33 34 35 36 37 38 39 40 41 42 43 44 45 46 47 48 49 50
000
ASUS43 KLSX 272007
RWRMO

WEATHER SUMMARY FOR MISSOURI
NATIONAL WEATHER SERVICE SPRINGFIELD MO
300 PM CDT SAT AUG 27 2016

NOTE: "FAIR" INDICATES FEW OR NO CLOUDS BELOW 12,000 FEET WITH NO
       SIGNIFICANT WEATHER AND/OR OBSTRUCTIONS TO VISIBILITY.
       CURRENT SKY AND/OR WEATHER CONDITIONS ARE NOT AVAILABLE FOR
       CHILLICOTHE AND FARMINGTON.

MOZ001>031-035>038-043-044-053-054-272100-
...NORTHERN AND WESTERN MISSOURI...

CITY           SKY/WX    TMP DP  RH WIND       PRES   REMARKS
KANSAS CTY INT PTSUNNY   86  69  56 CALM      30.02F HX  90
KANSAS C DTWN  MOSUNNY   88  71  57 W3        29.99F HX  94
LEE`S SUMMIT   PTSUNNY   85  71  63 VRB5      30.02F HX  90
ST JOSEPH      MOSUNNY   83  70  64 SW6       30.01F
KIRKSVILLE     MOSUNNY   86  70  58 SW8       30.03F HX  90

$$
MOZ066>068-077>081-088>096-101>105-272100-
...SOUTHWEST MISSOURI...

CITY           SKY/WX    TMP DP  RH WIND       PRES   REMARKS
SPRINGFIELD    MOSUNNY   86  67  52 SW6       30.05F
JOPLIN         SUNNY     88  68  51 S8        30.02F HX  91
BRANSON        PTSUNNY   77  73  88 E10       30.08S

$$
MOZ032>034-039>042-045>050-055>058-069>072-272100-
...CENTRAL MISSOURI...

CITY           SKY/WX    TMP DP  RH WIND       PRES   REMARKS
COLUMBIA       PTSUNNY   86  72  62 S7        30.03F HX  92
JEFFERSON CITY CLOUDY    87  70  56 VRB6      30.02F HX  92
ROLLA          MOSUNNY   85  72  65 CALM      30.04F HX  91
SEDALIA        MOSUNNY   89  69  51 SW9       30.03F HX  93
WHITEMAN AFB   PTSUNNY   86  72  62 SW9       30.01F HX  92
OSAGE BEACH    MOSUNNY   87  73  62 VRB3      30.04S THUNDER HX  94

$$
MOZ051-052-059>065-272100-
...EAST CENTRAL MISSOURI...

CITY           SKY/WX    TMP DP  RH WIND       PRES   REMARKS
ST LOUIS INTL  PTSUNNY   93  71  48 SW7       30.03F HX 100
SPIRIT OF STL  MOSUNNY   91  73  55 VRB5      30.01F HX  99
ST CHARLES     PTSUNNY   88  74  63 CALM      30.01F HX  96

$$
MOZ072>076-082>087-097>100-106>115-272100-
...SOUTH CENTRAL AND SOUTHEAST MISSOURI...

CITY           SKY/WX    TMP DP  RH WIND       PRES   REMARKS
CAPE GIRARDEAU MOSUNNY   88  72  58 MISG      30.04F HX  94
FARMINGTON     PTSUNNY   86  72  62 S7        30.06F HX  92
POPLAR BLUFF   SUNNY     89  74  60 SW6       30.03F HX  98
WEST PLAINS    MOSUNNY   86  72  62 SE6       30.09F HX  92

$$



USA.gov is the U.S. government's official web portal to all federal, state and local government web resources and services.